Tracking 28920 objects as of 24-May-2024
HD Live streaming from Space Station
objects crossing your sky now

STARLINK-1210

Track STARLINK-1210 now!
10-day predictions
STARLINK-1210 is classified as:


NORAD ID: 45207
Int'l Code: 2020-012AF
Perigee: 553.3 km
Apogee: 555.5 km
Inclination: 53.1 °
Period: 95.6 minutes
Semi major axis: 6925 km
RCS: Unknown
Launch date: February 17, 2020
Source: United States (US)
Launch site: AIR FORCE EASTERN TEST RANGE (AFETR)
Your satellite tracking list
Your tracking list is empty




NASA's NSSDC Master Catalog

Two Line Element Set (TLE):
1 45207U 20012AF  24145.09320118 -.00000219  00000-0  42271-5 0  9997
2 45207  53.0546  85.2117 0001604  94.9402 265.1771 15.06394794235519
Source of the keplerian elements: AFSPC